Weather in O Grove

Spain     42°29′26″N   8°52′17″W
temp.,
°C
wind,
m/s
gust,
m/s
humid.,
%
clouds,
%
prec.,
mm/h
press.,
hPa
HPBL,
m
2 august, mon
mon223:00+16nne2398100 1.0 1017110
02:00+16ne249799 1.1 1017151
05:00+14ne249829 0.0 1016117
08:00+13nne269721 0.0 1017168
11:00+19nne3669100 0.0 1018526
14:00+25nnw344168 0.0 10171437
17:00+27nw443714 0.0 10151791
20:00+23n465086 0.0 1016818
3 august, tue
tue323:00+17nne41076100 0.0 1019436
02:00+14nne3796100 0.0 1018197
05:00+13nne369830 0.0 1018160
08:00+12nne249620 0.0 101890
11:00+20nne1357100 0.0 1019512
14:00+24w4449100 0.0 1018945
17:00+22w346597 0.0 1018666
20:00+18w1288100 0.0 1018312
4 august, wed
wed423:00+17wsw1196100 0.0 101931
02:00+16ese109930 0.0 101914
05:00+16ene119897 0.0 101923
08:00+17se119651 0.1 101935
11:00+21nnw126814 0.2 1019874
14:00+25w33455 0.2 10191321
17:00+23wnw44505 0.0 1019757
20:00+21w23551 0.0 1019426
5 august, thu
thu523:00+15e11870 0.0 102014
02:00+14e11904 0.0 102014
05:00+14ese11870 0.0 101921
08:00+15se1281100 0.0 101846
11:00+19ssw2465100 0.0 1018355
14:00+18ssw3888100 0.2 1018383
17:00+21sw358191 0.4 1017709
20:00+20w246592 0.5 1017826
6 august, fri
fri623:00+16nw018237 0.0 101711
02:00+13ne22956 0.0 101734
05:00+12ne229717 0.0 101646
08:00+12ene119624 0.0 101533
11:00+19sw126163 0.0 1015937
14:00+20wsw345942 0.0 10151114
17:00+20wsw355828 0.0 10131100
20:00+18sw246798 0.0 1013660